Location: Dallas
(32.7833°N, 96.8000°W)
Time: 00:21:38
(UTC-06:00)

Envisat - Pass Details

Date: 31 January 2021
Orbit: 764 x 766 km, 98.1° (Epoch: 06 March)

Event Time Altitude Azimuth Distance (km) Brightness Sun altitude
Rises 04:56:22 0° 35° (NE) 3,233 6.7 -30.9°
Reaches altitude 10° 04:59:39 10° 57° (ENE) 2,302 6.1 -30.2°
Maximum altitude 05:02:36 16° 93° (E) 1,940 5.9 -29.6°
Drops below altitude 10° 05:05:33 10° 129° (SE) 2,293 6.1 -29.0°
Sets 05:08:48 0° 152° (SSE) 3,213 6.6 -28.3°
